[[{"header":{"parameterUnit":"m.s-1","parameterCategory":1,"la1":30.2991,"la2":30.254,"lo1":-89.0895,"lo2":-89.0444,"dy":0.0017,"dx":0.0017,"nx":28,"ny":28,"refTime":"2024-08-04T21:00:00:Z","depth":0,"parameterNumber":2,"parameterNumberName":"U-component_of_WINDS"},"data":[0,0,0,0,0,0,0,0,0,0,0,0,0,0,0,0,0,0,0,0,0,0,0,0,0,0,0,0,0,0,0,0,0,0,0,0,0,0,0,0,0,0,0,0,0,0,0,0,0,0,0,0,0,0,0,0,0,0,0.8648,0.8649,0,0.8725,0.8726,0.8727,0.8742,0.8741,0.8741,0.874,0.8824,0.8826,0.8829,0,0,0,0,0,0,0,0,0,0,0,0,0,0.852,0.8522,0.8648,0.8649,0.865,0.8725,0.8726,0.8727,0.8742,0.8741,0.874,0.874,0.8823,0.8826,0.8829,0,0,0,0,0,0,0,0,0,0,0,0,0,0.8584,0.8523,0.8648,0.8666,0.8669,0.8725,0.8726,0.8728,0.8742,0.8741,0.874,0.8739,0.8822,0.8826,0.883,0.8875,0,0,0.8843,0.8845,0,0,0,0,0,0,0,0,0.858,0.8589,0.8663,0.8665,0.8668,0.8723,0.8712,0.8777,0.8742,0.8714,0.874,0.8739,0.8791,0.8798,0.8814,0.8878,0.8882,0.8843,0.8846,0.8847,0.8849,0,0,0,0,0,0,0,0.8576,0.8586,0.8679,0.8664,0.8667,0.8673,0.8681,0.8724,0.8757,0.8717,0.8718,0.8727,0.8793,0.881,0.8817,0.8883,0.8843,0.8847,0.8849,0.8851,0.8991,0.8992,0,0,0,0,0,0,0.8567,0.8582,0.8676,0.8681,0.8621,0.8676,0.8685,0.8706,0.8757,0.8764,0.8727,0.8727,0.8804,0.8812,0.882,0.8877,0.8847,0.8851,0.8854,0.899,0.8991,0.8992,0,0,0,0,0,0,0.8565,0.8576,0.8673,0.8632,0.8645,0.8679,0.8703,0.8708,0.8726,0.8765,0.8771,0.8739,0.8803,0.8814,0.8861,0.888,0.8853,0.8857,0.8988,0.899,0.8992,0.8991,0,0,0,0,0,0,0.8561,0.8575,0.859,0.8632,0.8647,0.8712,0.8704,0.8711,0.8733,0.8733,0.8778,0.8784,0.8803,0.8855,0.8865,0.8885,0.886,0.8987,0.8989,0.8991,0.899,0.8993,0.8995,0,0,0,0,0,0.8556,0.8587,0.8591,0.8602,0.8667,0.8713,0.8721,0.8741,0.8734,0.8752,0.8777,0.8783,0.8876,0.8859,0.8871,0.8893,0.8986,0.8988,0.8991,0.8988,0.8992,0.8995,0,0,0,0,0,0,0.8548,0.8593,0.8598,0.8643,0.8674,0.8715,0.8737,0.8744,0.8779,0.8778,0.8803,0.8813,0.8859,0.8881,0.8862,0.894,0.8931,0.8936,0.8925,0.8928,0.8931,0.8925,0.8864,0,0,0,0,0,0.8552,0.8583,0.8621,0.8658,0.8673,0.8703,0.8723,0.8736,0.877,0.8783,0.8812,0.8845,0.8883,0.8907,0.8943,0.8993,0.9004,0.9014,0.9017,0.9019,0.9023,0.9054,0.9059,0.9001,0.9001,0.9001,0,0,0.8559,0.8588,0.8606,0.8657,0.8682,0.8717,0.8713,0.8749,0.8776,0.8789,0.8836,0.8858,0.8898,0.8947,0.897,0.8966,0.9042,0.9022,0.9023,0.9027,0.9057,0.9062,0.9067,0.9003,0.9003,0.9002,0,0,0.8591,0.8614,0.8648,0.8674,0.8712,0.8732,0.874,0.8781,0.8796,0.8843,0.8854,0.8887,0.895,0.8978,0.9001,0.9045,0.9053,0.9056,0.9071,0.9101,0.9105,0.9109,0.9127,0.9133,0.906,0.906,0.9061,0,0.8596,0.8646,0.8665,0.8701,0.8724,0.8737,0.8773,0.8798,0.8846,0.8863,0.8858,0.8938,0.8966,0.9023,0.9034,0.9051,0.9063,0.9051,0.9103,0.9107,0.9111,0.9129,0.9135,0.9061,0.9061,0.9061,0.9061,0,0.8651,0.8686,0.871,0.8755,0.8781,0.8817,0.8844,0.8868,0.8879,0.89,0.8949,0.8983,0.9027,0.9041,0.9053,0.9101,0.9098,0.9097,0.9088,0.9117,0.9133,0.914,0.9061,0.9061,0.9061,0.9061,0,0,0.8679,0.8736,0.8744,0.8766,0.881,0.8839,0.8876,0.8918,0.894,0.8973,0.9007,0.9061,0.9061,0.9087,0.9102,0.9127,0.9163,0.9124,0.9126,0.9132,0.9221,0.9222,0.9229,0.9168,0.9169,0.917,0.9218,0,0.8717,0.8783,0.8802,0.8858,0.8892,0.8906,0.8939,0.8971,0.8992,0.9026,0.905,0.9088,0.9084,0.91,0.9126,0.9153,0.9182,0.915,0.9202,0.9203,0.9192,0.9237,0.9238,0.9281,0.9225,0.9226,0.9227,0,0.877,0.8804,0.8863,0.8904,0.8919,0.8948,0.899,0.9021,0.9058,0.9072,0.9102,0.9115,0.9157,0.9145,0.9205,0.9183,0.9206,0.9223,0.9225,0.9231,0.9217,0.9246,0.9295,0.9302,0.9237,0.9236,0.9235,0,0.8786,0.8847,0.889,0.8909,0.8958,0.8978,0.9,0.9036,0.9061,0.9098,0.9115,0.9156,0.9179,0.9212,0.9238,0.9226,0.9296,0.9286,0.9311,0.931,0.9325,0.9324,0.938,0.9338,0.9338,0.9338,0.9338,0,0.8827,0.8863,0.8899,0.8926,0.8967,0.8991,0.9032,0.9055,0.9087,0.9121,0.9136,0.9167,0.9198,0.9234,0.9254,0.9302,0.9312,0.9326,0.9331,0.9325,0.9324,0.9341,0.9339,0.9339,0.9339,0.9339,0.9338,0,0.8852,0.8877,0.8926,0.8969,0.8981,0.901,0.9047,0.9075,0.9097,0.914,0.9151,0.9186,0.923,0.9258,0.9314,0.9327,0.938,0.9384,0.9367,0.937,0.9394,0.9391,0.9463,0.9475,0.9424,0.9424,0.9425,0,0.8877,0.8905,0.8951,0.8974,0.8995,0.9032,0.9057,0.9082,0.9108,0.9154,0.9177,0.9222,0.9258,0.9328,0.936,0.9403,0.9409,0.9431,0.9416,0.9409,0.9411,0.941,0.9414,0.9434,0.9434,0.9435,0.9435,0,0.8919,0.893,0.8965,0.9006,0.9035,0.9069,0.9102,0.912,0.9151,0.9181,0.9225,0.9253,0.931,0.9355,0.9402,0.9426,0.9437,0.9439,0.9448,0.9443,0.9432,0.944,0.9375,0.9438,0.9437,0.9437,0.9437,0.9437,0.8946,0.8972,0.9009,0.9048,0.9076,0.9107,0.9136,0.9162,0.9199,0.9246,0.9259,0.9306,0.9345,0.9409,0.9435,0.9473,0.9471,0.9482,0.9485,0.9488,0.9489,0.9425,0.9482,0.9481,0.9481,0.9481,0.9481,0,0.8989,0.9014,0.905,0.9096,0.9128,0.9133,0.9171,0.9198,0.9239,0.9274,0.931,0.9362,0.9406,0.9441,0.9487,0.9511,0.9518,0.9523,0.9522,0.9528,0.9488,0.9477,0.9517,0.9517,0.9517,0.9517,0.9517,0.9517,0.9016,0.9061,0.9078,0.9138,0.9163,0.9208,0.9229,0.9259,0.9288,0.9345,0.9381,0.9403,0.944,0.9489,0.953,0.954,0.9557,0.9561,0.9572,0.9534,0.953,0.9527,0.9516,0.9564,0.9564,0.9609,0.9609,0.9609]},{"header":{"parameterUnit":"m.s-1","parameterCategory":1,"la1":30.2991,"la2":30.254,"lo1":-89.0895,"lo2":-89.0444,"dy":0.0017,"dx":0.0017,"nx":28,"ny":28,"refTime":"2024-08-04T21:00:00:Z","depth":0,"parameterNumber":3,"parameterNumberName":"V-component_of_WINDS"},"data":[0,0,0,0,0,0,0,0,0,0,0,0,0,0,0,0,0,0,0,0,0,0,0,0,0,0,0,0,0,0,0,0,0,0,0,0,0,0,0,0,0,0,0,0,0,0,0,0,0,0,0,0,0,0,0,0,0,0,-0.0757,-0.0755,0,-0.0554,-0.0552,-0.055,-0.0561,-0.0564,-0.0567,-0.057,-0.0358,-0.035,-0.0342,0,0,0,0,0,0,0,0,0,0,0,0,0,-0.1153,-0.1146,-0.0757,-0.0755,-0.0752,-0.0555,-0.0552,-0.0549,-0.0561,-0.0565,-0.0568,-0.0572,-0.0361,-0.0351,-0.0341,0,0,0,0,0,0,0,0,0,0,0,0,0,-0.0969,-0.1144,-0.0758,-0.0734,-0.073,-0.0555,-0.0552,-0.0548,-0.056,-0.0565,-0.0569,-0.0573,-0.0364,-0.0352,-0.034,-0.0173,0,0,-0.0301,-0.0296,0,0,0,0,0,0,0,0,-0.0979,-0.0954,-0.074,-0.0736,-0.0731,-0.0588,-0.0614,-0.0422,-0.0559,-0.0625,-0.057,-0.0575,-0.0431,-0.0413,-0.0365,-0.0163,-0.0154,-0.03,-0.0292,-0.0287,-0.0283,0,0,0,0,0,0,0,-0.0992,-0.0963,-0.0677,-0.0737,-0.0731,-0.0734,-0.0712,-0.0578,-0.0505,-0.0619,-0.062,-0.0596,-0.0429,-0.0377,-0.036,-0.0151,-0.03,-0.0289,-0.0281,-0.0276,0.0193,0.0198,0,0,0,0,0,0,-0.101,-0.0974,-0.0683,-0.0671,-0.0869,-0.0723,-0.0699,-0.0629,-0.0507,-0.0492,-0.0592,-0.0597,-0.0396,-0.0375,-0.0353,-0.0153,-0.0287,-0.0275,-0.0268,0.0189,0.0194,0.02,0,0,0,0,0,0,-0.1019,-0.0984,-0.0691,-0.0822,-0.0785,-0.0711,-0.0633,-0.0623,-0.0571,-0.0486,-0.0473,-0.0553,-0.0399,-0.037,-0.0219,-0.0145,-0.027,-0.0258,0.0183,0.019,0.0197,0.025,0,0,0,0,0,0,-0.103,-0.0987,-0.0923,-0.0821,-0.0778,-0.0561,-0.0628,-0.0616,-0.055,-0.0554,-0.0446,-0.0432,-0.04,-0.0238,-0.0206,-0.013,-0.0248,0.0176,0.0186,0.0195,0.0242,0.0259,0.0273,0,0,0,0,0,-0.1044,-0.0914,-0.092,-0.0885,-0.0697,-0.0557,-0.0532,-0.05,-0.0544,-0.0479,-0.0425,-0.0435,-0.0158,-0.0222,-0.0187,-0.0106,0.0172,0.0183,0.0194,0.0236,0.0256,0.0272,0,0,0,0,0,0,-0.1008,-0.09,-0.0905,-0.0739,-0.0657,-0.0559,-0.0476,-0.0479,-0.0382,-0.039,-0.0353,-0.0328,-0.0177,-0.0126,-0.0199,0.0059,0.0001,0.002,0.0021,0.004,0.0055,0.0039,-0.0238,0,0,0,0,0,-0.0981,-0.0877,-0.0788,-0.065,-0.0609,-0.055,-0.0487,-0.047,-0.0383,-0.0348,-0.0283,-0.0198,-0.0092,-0.0023,0.008,0.025,0.0272,0.0323,0.0338,0.0349,0.0365,0.0455,0.0478,0.0236,0.0236,0.0236,0,0,-0.0923,-0.0852,-0.0788,-0.0641,-0.0576,-0.0469,-0.052,-0.0404,-0.0325,-0.033,-0.0184,-0.0134,-0.0036,0.0124,0.0198,0.0171,0.0436,0.0364,0.0373,0.0382,0.0469,0.0491,0.0512,0.0244,0.0242,0.0241,0,0,-0.0764,-0.0698,-0.0578,-0.0512,-0.0414,-0.0376,-0.0348,-0.0249,-0.0217,-0.007,-0.0073,0.0022,0.0204,0.0273,0.0331,0.0512,0.0505,0.0544,0.0623,0.071,0.0729,0.0746,0.0808,0.083,0.0559,0.056,0.056,0,-0.0704,-0.0545,-0.0515,-0.04,-0.0336,-0.0338,-0.0217,-0.0154,-0.0026,0.0018,-0.0015,0.0211,0.0277,0.0452,0.0495,0.0544,0.0576,0.0532,0.0724,0.0741,0.0758,0.0817,0.084,0.0564,0.0563,0.0563,0.0562,0,-0.0477,-0.0367,-0.0281,-0.0162,-0.0088,0.0031,0.0078,0.0149,0.0159,0.02,0.0347,0.0425,0.0542,0.0585,0.0598,0.076,0.074,0.0716,0.0657,0.0784,0.084,0.0863,0.0569,0.0568,0.0567,0.0566,0,0,-0.0287,-0.0156,-0.0125,-0.0073,0.0034,0.012,0.0237,0.0349,0.0407,0.0495,0.0593,0.0745,0.0722,0.0788,0.0808,0.0885,0.1019,0.0851,0.0854,0.0877,0.12,0.1216,0.1242,0.1015,0.102,0.1023,0.119,0,-0.0119,0.0086,0.0115,0.0297,0.0398,0.0395,0.0497,0.0573,0.0614,0.0705,0.0751,0.0857,0.082,0.0859,0.0935,0.0986,0.1084,0.0975,0.1106,0.111,0.1079,0.1272,0.129,0.1444,0.1213,0.1217,0.1219,0,0.0105,0.0195,0.0386,0.0474,0.0518,0.0609,0.0711,0.0799,0.0885,0.0909,0.098,0.099,0.111,0.1046,0.1211,0.1136,0.1191,0.1224,0.1231,0.1244,0.1171,0.1287,0.1495,0.1517,0.1255,0.1252,0.1249,0,0.0221,0.039,0.0525,0.0571,0.0679,0.0742,0.079,0.087,0.0934,0.1024,0.1065,0.1169,0.1225,0.1305,0.1341,0.1292,0.1503,0.1443,0.1525,0.1524,0.1569,0.1565,0.1786,0.1608,0.1607,0.1607,0.1606,0,0.0405,0.0521,0.0578,0.0661,0.079,0.0822,0.0949,0.0995,0.1066,0.1158,0.1163,0.1249,0.1292,0.1385,0.1414,0.1544,0.1571,0.1592,0.1598,0.1591,0.1588,0.1627,0.1616,0.1613,0.1612,0.161,0.1609,0,0.0556,0.0599,0.0746,0.0834,0.0859,0.095,0.1026,0.1106,0.1145,0.126,0.1289,0.135,0.1458,0.1502,0.1636,0.1655,0.1804,0.1803,0.1775,0.1776,0.1854,0.1845,0.2106,0.2141,0.1941,0.1943,0.1945,0,0.067,0.0759,0.0855,0.0916,0.0965,0.1063,0.1127,0.1161,0.1227,0.1328,0.1396,0.1503,0.1591,0.1764,0.182,0.1921,0.1922,0.2006,0.1937,0.1925,0.192,0.1913,0.1921,0.2018,0.202,0.2022,0.2023,0,0.0867,0.0882,0.0973,0.1071,0.1146,0.1226,0.1303,0.1353,0.1398,0.1472,0.1581,0.1649,0.1783,0.1889,0.1992,0.2042,0.204,0.2044,0.2068,0.2061,0.2039,0.2049,0.1807,0.2038,0.2037,0.2036,0.2035,0.2034,0.1002,0.1079,0.1157,0.1258,0.1318,0.1389,0.1468,0.1514,0.1606,0.1716,0.173,0.1847,0.1926,0.2065,0.2118,0.2209,0.2187,0.2223,0.2231,0.2239,0.2242,0.2025,0.2229,0.2228,0.2228,0.2228,0.2227,0,0.1196,0.1245,0.1337,0.1443,0.1521,0.1511,0.1594,0.1661,0.1762,0.1837,0.1921,0.2045,0.2147,0.2209,0.2311,0.2372,0.2373,0.2397,0.2393,0.2403,0.2258,0.2225,0.2394,0.2394,0.2394,0.2394,0.2394,0.2394,0.1306,0.1435,0.1459,0.1617,0.1666,0.1779,0.1827,0.1892,0.195,0.2087,0.2171,0.221,0.2279,0.2386,0.2478,0.2493,0.253,0.2555,0.2569,0.2432,0.2414,0.2398,0.2367,0.2563,0.2564,0.2707,0.2708,0.2709]}]]